#timestamp,LO_Frequency,Hit,StdDev 
1567688415.2,286046995.1,N
1567688435.0,286046996.7,N
1567688435.9,286046996.7,N
1567688455.8,286046999.4,N
1567688475.6,286046999.4,N
1567688495.4,286046997.1,N
1567688515.3,286046996.7,N
1567688535.1,286046997.0,N
1567688555.8,286046997.8,N
1567688575.7,286046996.2,N
1567688595.5,286046993.7,Y
1567688615.4,286047000.2,P
1567688635.2,286047002.2,N
1567688655.0,286047001.0,N
1567688655.9,286047001.0,N
1567688675.8,286046998.9,N
1567688695.6,286046998.8,N
1567688715.4,286047001.0,N
1567688735.3,286047000.7,N
1567688755.1,286046999.5,N
1567688775.9,286046997.5,N
1567688795.7,286046997.3,N
1567688815.5,286046996.7,N
1567688835.4,286046999.6,N
1567688855.2,286046997.2,N
1567688875.0,286046993.5,Y
1567688875.9,286046993.5,P
1567688895.8,286046993.7,N
1567688915.6,286046996.2,N
1567688935.5,286046995.7,N
1567688955.3,286046996.2,N
1567688975.1,286046994.4,N
1567688995.9,286046994.2,Y
1567689015.7,286047000.9,P
1567689035.6,286047000.5,N
1567689055.4,286046998.2,N
1567689075.2,286046998.8,N
1567689095.1,286046998.2,N
1567689096.0,286046998.2,N
1567689115.8,286046996.5,N
1567689135.6,286046999.0,N
1567689155.5,286046998.4,N
1567689175.3,286047000.9,N
1567689195.2,286047002.3,N
1567689215.9,286047002.8,N
1567689235.7,286047000.2,N
1567689255.6,286047001.5,N
1567689275.4,286047001.6,N
1567689295.2,286047002.3,N
1567689315.1,286046998.7,N
1567689316.0,286046998.7,N
1567689335.8,286047000.9,N
1567689355.7,286046998.2,N
1567689375.5,286046998.4,N
1567689395.3,286046998.1,N
1567689415.2,286047001.1,N
1567689435.0,286046999.7,N
1567689435.9,286046999.7,N
1567689455.7,286047000.9,N
1567689475.6,286047000.5,N
1567689495.4,286047000.2,N
1567689515.3,286047000.8,N
1567689535.1,286047000.3,N
1567689536.0,286047000.3,N
1567689555.8,286047002.6,N
1567689575.7,286047001.8,N
1567689595.5,286046999.9,N
1567689615.4,286047001.0,N
1567689635.2,286046998.9,N
1567689655.0,286046998.2,N
1567689655.9,286046998.2,N
1567689675.8,286046997.1,N
1567689695.6,286046994.9,Y
1567689715.4,286046994.1,P
1567689735.3,286046991.8,N
1567689755.1,286046992.1,N
1567689775.9,286046994.4,N
1567689795.7,286046994.7,N
1567689815.5,286046995.0,N
1567689835.4,286046995.8,N
1567689855.2,286046996.4,N
1567689875.0,286046995.9,N
1567689875.9,286046995.9,N
1567689895.8,286046994.9,N
1567689915.6,286046995.0,N
1567689935.5,286046997.3,N
1567689955.3,286046996.9,N
1567689975.1,286046996.9,N
1567689995.9,286046997.0,N
1567690015.7,286046997.8,N
1567690035.5,286046997.8,N
1567690055.4,286046994.9,N
1567690075.2,286046996.1,N
1567690095.1,286046999.2,N
1567690096.0,286046999.2,N
1567690115.8,286046999.5,N
1567690135.6,286046997.0,N
1567690155.5,286046997.3,N
1567690175.3,286046999.4,N
1567690195.1,286047000.4,N
1567690215.9,286047000.3,N
1567690235.7,286047000.8,N
1567690255.6,286046999.1,N
1567690275.4,286046999.6,N
1567690295.2,286046995.0,N
1567690315.1,286046997.6,N
1567690316.0,286046997.6,N
1567690335.8,286046997.9,N
1567690355.6,286046995.6,N
1567690375.5,286046996.3,N
1567690395.3,286046998.0,N
1567690415.2,286046995.3,N
1567690435.9,286046998.0,N
1567690455.7,286047011.9,Y
1567690475.6,286046999.5,P
1567690495.4,286046997.3,N
1567690515.3,286046996.9,P
1567690535.1,286046999.2,N
1567690536.0,286046999.2,N
1567690555.8,286046997.9,N
1567690575.7,286046995.8,Y
1567690595.5,286046995.0,P
1567690615.3,286046995.3,N
1567690635.2,286046999.5,N
1567690655.0,286046998.8,N
1567690655.9,286046998.8,N
1567690675.8,286046998.1,N
1567690695.6,286046997.1,N
1567690715.4,286046996.8,N
1567690735.3,286046997.0,N
1567690755.1,286046999.2,N
1567690775.8,286046996.6,N
1567690795.7,286046997.7,N
1567690815.5,286046995.2,Y
1567690835.4,286046996.8,P
1567690855.2,286046999.3,N
1567690875.0,286046999.2,N
1567690875.9,286046999.2,N
1567690895.8,286046996.8,Y
1567690915.6,286046996.5,P
1567690935.5,286046999.0,N
1567690955.3,286046998.4,N
1567690975.1,286046998.5,N
1567690995.9,286046998.4,N
1567691015.7,286047002.6,Y
1567691035.5,286047003.1,P
1567691055.4,286047004.0,N
1567691075.2,286047005.9,N
1567691095.0,286047003.3,N
1567691096.0,286047003.3,N
1567691115.8,286047004.2,N
1567691135.6,286047001.3,N
1567691155.5,286047000.0,N
1567691175.3,286047000.5,N
1567691195.1,286047000.3,N
1567691215.9,286047002.8,N
1567691235.7,286047002.2,N
1567691255.5,286047000.5,N
1567691275.4,286046998.3,N
1567691295.2,286046998.2,N
1567691315.1,286046998.2,N
1567691316.0,286046998.2,N
1567691335.8,286046998.5,N
1567691355.6,286047001.0,N
1567691375.5,286046998.2,N
1567691395.3,286046999.4,N
1567691415.1,286046996.9,N
1567691435.9,286046999.4,N
1567691455.7,286046996.5,N
1567691475.6,286046999.4,N
1567691495.4,286046999.4,N
1567691515.2,286046999.2,N
1567691535.1,286046999.0,N
1567691536.0,286046999.0,N
1567691555.8,286046998.7,N
1567691575.6,286046996.5,N
1567691595.5,286046996.9,N
1567691615.3,286046998.3,N
1567691635.2,286046998.9,N
1567691655.9,286046998.5,N
1567691675.7,286046999.9,N
1567691695.6,286047000.6,N
1567691715.4,286047000.0,N
1567691735.2,286046998.7,N
1567691755.1,286046998.9,N
1567691756.0,286046998.9,N
1567691775.8,286046998.6,N
1567691795.7,286046999.5,N
1567691815.5,286046998.9,N
1567691835.3,286046998.7,N
1567691855.2,286046998.2,N
1567691875.9,286047001.2,N
1567691895.7,286046999.4,N
1567691915.6,286046998.5,N
1567691935.4,286046998.8,N
1567691955.2,286046999.4,N
1567691975.1,286046999.1,N
1567691976.0,286046999.1,N
1567691995.8,286046999.5,N
